GW3736 Weather Reports


time (UTC)temp
F
wind
direction
speed
knots
gust
knots
rain 1hr
in
rain 24hr
in
rain mn
in
humidity
%
barometer
mb
20260905044524 71 88 0.0 0.9 0.00 0.11 0.00 86 1010.7
20260905043519 71 88 0.0 1.7 0.00 0.11 0.00 86 1010.7
20260905042516 71 92 0.0 0.9 0.00 0.11 0.00 86 1010.8
20260905041613 71 91 0.0 1.7 0.00 0.11 0.00 86 1010.8
20260905040549 71 91 0.0 0.9 0.00 0.11 0.00 86 1011.0
20260905035528 71 91 0.0 1.7 0.00 0.11 0.11 86 1010.9
20260905034523 71 91 0.0 1.7 0.00 0.11 0.11 86 1011.2
20260905033520 71 89 0.9 3.5 0.00 0.11 0.11 86 1011.3
20260905032516 72 85 1.7 3.5 0.00 0.11 0.11 86 1011.4
20260905031554 72 92 0.0 1.7 0.00 0.11 0.11 86 1011.2
20260905030531 72 91 0.9 1.7 0.00 0.11 0.11 86 1011.1
20260905025527 72 85 0.9 2.6 0.00 0.11 0.11 86 1011.2
20260905024524 72 85 1.7 6.1 0.00 0.11 0.11 86 1011.3
20260905023601 73 93 0.9 1.7 0.00 0.11 0.11 86 1011.2
20260905022518 73 94 0.0 0.9 0.00 0.11 0.11 86 1011.1
20260905021535 73 92 0.9 1.7 0.00 0.11 0.11 86 1011.1
20260905020532 73 92 0.0 1.7 0.00 0.11 0.11 86 1011.3
20260905015529 73 92 0.0 1.7 0.00 0.11 0.11 86 1011.2
20260905014526 73 92 0.0 1.7 0.00 0.11 0.11 86 1011.3
20260905013523 73 95 0.0 1.7 0.00 0.11 0.11 85 1011.1
20260905012520 73 96 0.9 1.7 0.00 0.11 0.11 85 1011.1
20260905011516 73 96 0.9 1.7 0.00 0.11 0.11 85 1011.0
20260905010533 73 93 0.9 2.6 0.00 0.11 0.11 85 1010.9
20260905005530 74 89 0.9 3.5 0.00 0.11 0.11 85 1010.9
20260905004527 74 97 0.9 2.6 0.00 0.11 0.11 84 1011.0
20260905003524 74 98 0.9 3.5 0.00 0.11 0.11 84 1010.9
20260905002521 75 95 1.7 5.2 0.00 0.11 0.11 83 1010.8
20260905001538 76 108 2.6 6.1 0.00 0.11 0.11 83 1010.6
20260905000535 76 105 1.7 5.2 0.00 0.11 0.11 83 1010.6
20260904235613 76 120 0.0 0.9 0.00 0.11 0.11 83 1010.5
20260904234549 76 117 0.0 1.7 0.00 0.11 0.11 82 1010.5
20260904233526 77 118 0.0 0.9 0.00 0.11 0.11 82 1010.3
20260904232522 77 122 0.0 1.7 0.00 0.11 0.11 81 1010.1
20260904231519 77 120 0.9 3.5 0.00 0.11 0.11 81 1010.0
20260904230518 77 119 1.7 3.5 0.00 0.11 0.11 80 1009.8
20260904225533 78 244 0.0 1.7 0.00 0.11 0.11 80 1009.9
20260904224550 78 243 0.0 1.7 0.00 0.11 0.11 80 1009.8
20260904223527 78 243 0.9 1.7 0.00 0.11 0.11 80 1009.7
20260904222524 78 243 0.9 2.6 0.00 0.11 0.11 79 1009.6
20260904221521 78 243 0.9 2.6 0.00 0.11 0.11 79 1009.7
20260904220518 78 240 1.7 3.5 0.00 0.11 0.11 79 1009.7
20260904215535 78 243 1.7 5.2 0.00 0.11 0.11 80 1009.6
20260904214532 78 243 0.9 2.6 0.00 0.11 0.11 80 1009.6
20260904213529 78 243 2.6 5.2 0.00 0.11 0.11 80 1009.4
20260904212526 78 242 2.6 5.2 0.00 0.11 0.11 82 1009.1
20260904211523 78 244 2.6 7.0 0.00 0.11 0.11 83 1009.1
20260904210520 78 242 1.7 5.2 0.00 0.11 0.11 83 1009.0
20260904205557 78 242 3.5 7.0 0.00 0.11 0.11 84 1009.0
20260904204534 77 240 1.7 5.2 0.00 0.13 0.11 85 1008.9
20260904203530 77 242 3.5 7.0 0.00 0.15 0.11 86 1008.9
20260904202527 77 237 2.6 6.1 0.00 0.16 0.11 87 1009.0
20260904201546 77 241 1.7 5.2 0.00 0.24 0.11 87 1009.1
20260904200541 77 239 2.6 5.2 0.00 0.24 0.11 88 1009.3
20260904195518 77 235 3.5 6.1 0.00 0.24 0.11 89 1009.4
20260904194536 77 239 3.5 6.1 0.00 0.24 0.11 89 1009.6
20260904193532 76 238 3.5 6.1 0.00 0.24 0.11 90 1009.7
20260904192528 76 234 3.5 8.7 0.00 0.24 0.11 91 1009.9
20260904191526 77 226 2.6 6.1 0.00 0.24 0.11 92 1010.0
20260904190522 76 229 2.6 5.2 0.00 0.24 0.11 92 1010.0
20260904185539 76 232 3.5 7.8 0.00 0.24 0.11 93 1009.9
20260904184516 76 229 1.7 6.1 0.00 0.24 0.11 93 1010.0
20260904183553 75 214 2.6 6.1 0.00 0.24 0.11 93 1010.3
20260904182550 75 217 1.7 5.2 0.00 0.24 0.11 93 1010.2
20260904181527 75 190 0.9 2.6 0.00 0.24 0.11 93 1010.3
20260904180524 75 194 1.7 5.2 0.00 0.24 0.11 93 1010.4
20260904175521 75 146 1.7 5.2 0.00 0.24 0.11 93 1010.3
20260904174518 75 158 2.6 6.1 0.00 0.24 0.11 93 1010.5
20260904173535 74 171 1.7 3.5 0.00 0.24 0.11 93 1010.6
20260904172532 73 193 1.7 5.2 0.00 0.24 0.11 93 1011.0
20260904171529 73 213 1.7 3.5 0.00 0.24 0.11 93 1010.9
20260904170526 72 219 1.7 2.6 0.00 0.26 0.11 93 1011.0
20260904165522 72 140 1.7 2.6 0.00 0.26 0.11 93 1010.9
20260904164520 71 216 0.9 2.6 0.00 0.26 0.11 93 1011.1
20260904163518 71 219 1.7 3.5 0.00 0.26 0.11 93 1011.5
20260904162553 71 217 0.9 3.5 0.00 0.27 0.11 93 1011.4
20260904161532 72 217 1.7 2.6 0.01 0.28 0.11 93 1011.6
20260904160527 72 215 0.9 2.6 0.02 0.33 0.11 93 1011.8
20260904155524 71 149 1.7 3.5 0.04 0.35 0.11 93 1012.0
20260904154521 71 198 1.7 2.6 0.04 0.35 0.11 93 1012.4
20260904153518 70 210 0.9 2.6 0.04 0.35 0.11 93 1012.5
20260904152535 70 133 1.7 3.5 0.04 0.35 0.11 93 1012.2
20260904151552 70 147 0.0 3.5 0.04 0.34 0.10 93 1013.1
20260904150529 70 215 0.9 1.7 0.03 0.33 0.08 93 1013.3
20260904145526 69 218 1.7 3.5 0.05 0.31 0.07 93 1013.1
20260904144523 69 219 0.0 1.7 0.06 0.31 0.07 93 1012.7
20260904143520 69 221 0.0 1.7 0.06 0.31 0.06 93 1012.6
20260904142538 69 0.0 0.0 0.06 0.31 0.06 93 1012.5
20260904140530 69 224 0.0 1.7 0.06 0.30 0.06 93 1012.4
20260904135548 69 0.0 0.0 0.02 0.27 0.02 93 1012.7
20260904134524 69 224 0.0 1.7 0.01 0.26 0.01 93 1012.9
20260904133521 69 224 0.0 0.9 0.01 0.25 0.01 93 1012.7
20260904132519 69 224 0.9 1.7 0.00 0.25 0.00 93 1012.9
20260904131534 69 223 0.0 0.9 0.00 0.25 0.00 92 1012.7
20260904130532 69 223 0.0 0.9 0.00 0.24 0.00 92 1012.3
20260904125549 69 221 0.0 0.9 0.00 0.24 0.00 92 1012.1
20260904124547 69 123 0.9 2.6 0.00 0.24 0.00 93 1012.3
20260904123542 69 96 0.0 0.9 0.00 0.24 0.00 93 1012.0
20260904122601 69 100 0.0 2.6 0.00 0.24 0.00 93 1011.9
20260904121517 69 96 0.9 2.6 0.00 0.24 0.00 93 1012.2
20260904120533 69 0.0 0.0 0.00 0.24 0.00 93 1012.3
20260904115530 69 0.0 0.0 0.00 0.24 0.00 92 1011.9
20260904114527 69 95 0.0 0.9 0.00 0.24 0.00 92 1011.6
20260904113525 68 95 0.0 0.9 0.00 0.24 0.00 92 1011.8
20260904112521 68 95 0.0 1.7 0.00 0.24 0.00 92 1011.4
20260904111518 68 96 0.9 1.7 0.00 0.24 0.00 92 1011.4
20260904110534 68 97 0.9 1.7 0.00 0.24 0.00 92 1011.6
20260904105532 68 98 1.7 3.5 0.00 0.24 0.00 92 1011.4
20260904104529 68 144 1.7 5.2 0.00 0.24 0.00 92 1011.1
20260904103526 68 143 2.6 5.2 0.00 0.24 0.00 92 1011.1
20260904102522 68 164 0.9 0.9 0.00 0.24 0.00 92 1010.9
20260904101519 68 165 0.0 0.9 0.00 0.24 0.00 92 1010.8
20260904100516 68 175 0.0 0.9 0.00 0.24 0.00 92 1010.7
20260904095533 68 158 0.0 0.9 0.00 0.24 0.00 92 1010.2
20260904094532 68 0.0 0.0 0.00 0.24 0.00 92 1010.7
20260904093527 68 0.0 0.0 0.00 0.24 0.00 92 1011.1
20260904092524 68 0.0 0.0 0.00 0.24 0.00 92 1011.3
20260904091521 68 0.0 0.0 0.00 0.24 0.00 92 1011.5
20260904090518 68 0.0 0.0 0.00 0.24 0.00 92 1011.4
20260904085535 68 0.0 0.0 0.00 0.24 0.00 92 1011.3
20260904084532 68 157 0.0 1.7 0.00 0.24 0.00 92 1011.2
20260904083549 68 157 0.0 1.7 0.00 0.24 0.00 92 1011.3
20260904082526 68 171 0.9 1.7 0.00 0.24 0.00 92 1011.6
20260904081523 68 189 0.0 0.9 0.00 0.24 0.00 92 1011.5
20260904080520 68 169 0.9 3.5 0.00 0.24 0.00 92 1011.3
20260904075537 68 171 0.9 3.5 0.00 0.24 0.00 92 1011.2
20260904074534 68 197 0.9 3.5 0.00 0.24 0.00 92 1011.1
20260904073531 68 186 0.9 3.5 0.00 0.24 0.00 92 1010.9
20260904072528 67 193 0.9 2.6 0.00 0.25 0.00 92 1011.2
20260904071525 68 182 0.9 3.5 0.00 0.26 0.00 92 1011.3
20260904070521 67 178 1.7 3.5 0.00 0.26 0.00 92 1011.6
20260904065518 68 202 1.7 5.2 0.00 0.26 0.00 91 1011.7
20260904064515 68 199 1.7 6.1 0.00 0.27 0.00 92 1011.9
20260904063532 68 193 0.9 3.5 0.00 0.28 0.00 91 1011.8
20260904062529 68 0.0 0.0 0.00 0.28 0.00 91 1011.8
20260904061526 68 202 0.0 1.7 0.00 0.28 0.00 91 1011.6
20260904060543 68 0.0 0.0 0.00 0.28 0.00 91 1011.6
20260904055520 68 0.0 0.0 0.00 0.28 0.00 91 1011.7
20260904054517 68 0.0 0.0 0.00 0.28 0.00 91 1011.9
20260904053534 68 201 0.0 0.9 0.00 0.28 0.00 91 1012.0
20260904052551 68 0.0 0.0 0.00 0.28 0.00 91 1012.0
20260904051528 68 0.0 0.0 0.00 0.32 0.00 91 1012.0
20260904050544 68 0.0 0.0 0.00 0.33 0.00 91 1012.1
20260904045521 68 0.0 0.0 0.00 0.33 0.00 91 1012.2